Погода в Шадринске

Хотите узнать прогноз погоды в Шадринске? Тогда Вам сюда: Погода в Шадринске

Поиск расширенной информации на нашем сайте:

Полезная информация:

Новости сайта



02.01.2020
Опубликован Долгосрочный прогноз погоды по городам России и ближнего зарубежья на январь 2020 года.
Карты: Прогноз на январь и февраль 2020 года, Сравнение прогнозируемой аномалии приземной температуры воздуха на январь 2020 года по разным моделям.




Погода в Шадринске - сегодня

Время (UTC), дата Ветер
(°,м/с) 
Видим.   Явления Облачность Т
(°С)
Тd
(°С)
f(%) Тe
(°С)
Pmin
(гПа)
dP
(гПа)
Po
(мм)
O2
(г/м3)
Тmin Tmax R s Состояние
почвы
09 04.06.20 010 (С) 10 км    4/4 600 м 
[Cu hum]
+15.9 -0.7 32 +16  1023  0.2  759  289           
12 04.06.20 040 (СВ) 10 км    1/1 600 м 
[Cu hum]
+17.1 -2.1 27 +18  1023.1  0.1  759  288           
15 04.06.20 040 (СВ) 10 км    ясно 
+15.8 -1.6 30 +17  1023.3  0.2  759  289    +17.2       
18 04.06.20 230 (ЮЗ) 10 км    ясно 
+6.8 +2.4 73 +8  1025  1.3  760  299           
21 04.06.20 тихо ()   10 км    ясно 
+3.3 +1.2 86 +3  1025.8  0.7  761  303           
00 05.06.20 260 (З) 4000 м  дымка  ясно 
+1.7 +0.3 90 +2  1026.8  762  305           
03 05.06.20 300 (СЗ) 10 км    ясно 
+12.9 +5.6 61 +14  1026.9  0.5  762  292  +1.7        сухая 
06 05.06.20 280 (З) 10 км    1/0 верхняя 
[Ci sp]
+17.9 -0.6 29 +19  1026.5  -0.3  762  288           
09 05.06.20 280 (З) 10 км    3/0 верхняя 
[Ci sp]
+20.7 -1.7 22 +21  1025.5  -1  761  285           
12 05.06.20 240 (ЮЗ) 10 км    ясно 
+22 -2.2 20 +22  1024.6  -0.8  761  284           
15 05.06.20 290 (З) 10 км    ясно 
+21 +0.3 25 +21  1024.1  -0.5  760  284    +22.3       
18 05.06.20 тихо ()   10 км    ясно 
+10.3 +4 65 +10  1025.1  0.6  761  295           
21 05.06.20 тихо ()   10 км    ясно 
+6.9 +3.3 78 +7  1025.9  0.6  761  299           
00 06.06.20 тихо ()   10 км    ясно 
+5.7 +3.7 87 +6  1026.7  0.8  762  300           
03 06.06.20 070 (В) 10 км    ясно 
+16 +7.3 56 +17  1026.4  0.1  762  289  +5.2        сухая 
06 06.06.20 180 (Ю) 10 км    ясно 
+22.5 +1.5 25 +23  1025.8  -0.4  761  283           
09 06.06.20 290 (З) 10 км    ясно 
+24.3 +1.8 23 +24  1024.6  -1.1  761  281           
12 06.06.20 160 (Ю) 10 км    ясно 
+25.6 +1 20 +26  1023.5  -1.1  760  280           
15 06.06.20 190 (Ю) 10 км    ясно 
+24.2 +1.3 22 +24  1022.6  -0.9  759  281    +26.1       
18 06.06.20 190 (Ю) 10 км    ясно 
+15.3 +5.7 53 +17  1023.6  0.7  760  289           
21 06.06.20 070 (В) 10 км    ясно 
+11.1 +6.9 75 +12  1024.1  0.4  760  293           
00 07.06.20 080 (В) 10 км    ясно 
+9 +6.2 83 +10  1024.7  0.5  760  296           
03 07.06.20 120 (ЮВ) 10 км    ясно 
+18.7 +8.9 53 +20  1024.7  0.4  761  285  +8.5        сухая 
06 07.06.20 260 (З) 10 км    ясно 
+25.7 +1.9 21 +26  1024.3  -0.2  760  280           
09 07.06.20 330 (СЗ) 10 км    ясно 
+27 -0.8 16 +27  1023.5  -0.7  760  279           
Время (UTC), дата Ветер
(°,м/с) 
Видим.   Явления Облачность Т
(°С)
Тd
(°С)
f(%) Тe
(°С)
Pmin
(гПа)
dP
(гПа)
Po
(мм)
O2
(г/м3)
Тmin Tmax R s Состояние
почвы

Для получения пояснительной информации подведите курсор к названию столбца.

ПОГОДА в Шадринске - архив

Всё, что Вы хотите узнать о погоде в Шадринске - удобно и подробно!

Выберите нужную дату (начиная с 1 января 2019* года) и нажмите кнопку "Найти".
Будут отображены архивные сводки погоды по пункту Шадринск, начиная с указанной даты.


Отображать данные в формате CSV (для использования в таблицах Excel)


Внимание! Наш архив погоды предназначен исключительно для личного некоммерческого использования в познавательных целях. Если Вам необходимы официальные справки о состоянии погоды (для производственных, юридических, коммерческих и т.п. целей), обращайтесь в органы Росгидромета.

*Примечание: данная дата относится к архиву по метеостанциям СССР (Россия, СНГ, Балтия).
Архив по метеостанциям Зарубежной Европы и Азии (кроме Китая) хранится 10 дней, по другим регионам земного шара (Китай, Африка, Америка, Австралия, Океания) - 1 день.

Шадринск - район местоположения метеостанции


Название, широта, долгота, высота метеостанции:
Шадринск 56.1°ш. 63.6°д. 89 м над ур. моря [Российская Федерация]

Дополнительная информация

В oтличие oт бoльшинства пoгoдных сайтoв мы публикуем пoдрoбную метеoинфoрмацию в детальнoм прoфессиoнальнoм фoрмате.

Характеристики температуры и влажнoсти вoздуха измеряются на высoте 2 м в тени вдали oт зданий и деревьев.
Скoрoсть ветра измеряется на высoте 10 м (на урoвне рoста челoвека скoрoсть ветра ниже в 1.5-2 раза). Если метеoстанция нахoдится в гoрoде или в лесу, тo скoрoсть ветра занижена на 2-4 м/с пo сравнению с oткрытым местoм. Скoрoсть ветра над акватoриями крупных рек и oзёр, а также на вершинах хoлмoв на 2-5 м/с выше, чем в oбычных услoвиях.
Атмoсфернoе давление в разных тoчках местнoсти мoжет значительнo oтличаться oт давления на метеoстанции, в зависимoсти oт услoвий рельефа (при пoдъёме на 10 м давление пoнижается примернo на 1 мм рт.ст.).